Weather in Kalinki

Russia / Kostroma Oblast     57°48′11″N   41°18′25″E
temp.,
°C
wind,
m/s
gust,
m/s
humid.,
%
clouds,
%
prec.,
mm/h
press.,
hPa
HPBL,
m
29 june, wed
wed2900:00+9ne37710 0.0 1024120
03:00+7ne23745 0.0 102550
06:00+11ne23645 0.0 1025164
09:00+16nne34415 0.0 10241279
12:00+19nne23340 0.0 10231651
15:00+21n23320 0.0 10211923
18:00+20n24433 0.0 10201602
21:00+14nnw1161100 0.0 102010
30 june, thu
thu3000:00+11nnw227134 0.0 102023
03:00+9nw247710 0.0 102069
06:00+12nnw25683 0.0 1019161
09:00+19nnw474469 0.0 1018911
12:00+22nnw58337 0.0 10171948
15:00+23n68355 0.0 10162512
18:00+21n49444 0.0 10152224
21:00+15nne38705 0.0 1017151
1 july, fri
fri100:00+11ne38710 0.0 1019139
03:00+9ene22800 0.0 102038
06:00+12nne246732 0.0 1021156
09:00+17nne36445 0.0 10211490
12:00+20nne46345 0.0 10211903
15:00+21nne45325 0.0 10202016
18:00+21nne244436 0.0 10191736
21:00+14nw11665 0.0 101911
2 july, sat
sat200:00+13wnw226557 0.0 101911
03:00+12wnw2479100 0.0 101967
06:00+14w376497 0.0 1017183
09:00+21nw36595 0.0 1016558
12:00+26nnw474867 0.0 10142241
15:00+27n58385 0.0 10132516
18:00+25nne57475 0.0 10131579
21:00+17ene39790 0.0 1015241
3 july, sun
sun300:00+13ene27895 0.0 1016132
03:00+11ne22955 0.0 101717
06:00+15nne12785 0.0 1017156
09:00+20n23555 0.0 10161031
12:00+24nw34463 0.0 10151632
15:00+26nnw35400 0.0 10131996
18:00+25n24498 0.0 10131326
21:00+18nnw227338 0.0 101318